Regional Weather Roundup
Issued by NWS

Home | Current Version | Previous Version | Graphics & Text | Print | Product List | Glossary On
Versions: 1 2 3 4 5 6 7 8 9 10 11 12 13 14 15 16 17 18 19 20 21 22 23 24 25 26 27 28 29 30 31 32 33 34 35 36 37 38 39 40 41 42 43 44 45 46 47 48 49 50
000
ASUS43 KLOT 210606
RWRIL

ILLINOIS REGIONAL WEATHER ROUNDUP
NATIONAL WEATHER SERVICE CHICAGO/ROMEOVILLE IL
100 AM CDT SUN SEP 21 2014

NOTE: "FAIR" INDICATES FEW OR NO CLOUDS BELOW 12,000 FEET WITH NO
SIGNIFICANT WEATHER AND/OR OBSTRUCTIONS TO VISIBILITY.

* THESE STATIONS ARE NOT UNDER NWS QUALITY CONTROL. THEY ALSO MAY NOT
  REPORT WEATHER SUCH AS PRECIPITATION OR FOG.

ILZ001-002-007-009-015-016-024-210700-
NORTHWEST ILLINOIS

CITY           SKY/WX    TMP DP  RH WIND       PRES   REMARKS
MOLINE         CLOUDY    66  57  72 NW18G26   29.87R
6HR MIN TEMP:  66; 6HR MAX TEMP:  73; 6HR PCP: TRACE;

STERLING*      CLOUDY    64  59  82 NW16      29.81R
SAVANNA*       PTCLDY    64  56  76 NW16G25   29.83R
$$

ILZ003-004-008-010-011-017-018-210700-
NORTH CENTRAL ILLINOIS

CITY           SKY/WX    TMP DP  RH WIND       PRES   REMARKS
ROCKFORD       CLOUDY    65  61  87 W12       29.77R
6HR MIN TEMP:  65; 6HR MAX TEMP:  73; 6HR PCP:  0.10;

ROCHELLE*      CLOUDY    64  61  91 W12       29.78R
DE KALB*       CLOUDY    62  60  93 W12       29.76F
PERU*          MOCLDY    70  64  81 W9        29.80F
$$

ILZ005-006-012>014-019>023-210700-
NORTHEAST ILLINOIS

CITY           SKY/WX    TMP DP  RH WIND       PRES   REMARKS
CHICAGO-OHARE  NOT AVBL
CHICAGO-MIDWAY TSTM      67  63  87 W14G31    29.74S
AURORA         CLOUDY    65  60  84 W8        29.75F
6HR MIN TEMP:  64; 6HR MAX TEMP:  72; 6HR PCP:  0.17;

LANSING*       CLEAR     69  66  91 SW12      29.72F
JOLIET*        MOCLDY    69  65  88 W13G20    29.77R
WAUKEGAN       CLOUDY    64  62  93 VRB3      29.68F
6HR MIN TEMP:  64; 6HR MAX TEMP:  69; 6HR PCP:  0.42;

DUPAGE AIRPORT   N/A    N/A N/A N/A MISG      29.73F
6HR MIN TEMP:  65; 6HR MAX TEMP:  71; 6HR PCP:  0.16;

KANKAKEE*      CLEAR     69  67  94 SW8       29.77F
WHEELING       LGT RAIN  69  64  84 W13G22    29.72R
6HR MIN TEMP:  67; 6HR MAX TEMP:  74; 6HR PCP:  0.07;

MORRIS*        LGT RAIN  70  69  96 W15       29.77R
ROMEOVILLE*    CLOUDY    68  66  94 W12G41    29.76R
NORTHERLY ISL    N/A     71  64  78 SW13        N/A
$$

LMZ740>746-210700-
SOUTHERN LAKE MICHIGAN

STATION/POSITION SKY/WX   TEMP    WIND        PRES    VSBY  WAVE
                          AIR SEA DIR/SP/G                  HT/PER
                          (F)     (DEG/KT/KT) (MB)    (MI)  (FT/S)
SOUTHERN BUOY              66 64  210/ 10/ 12 1004.2F         1/ 3
WAUKEGAN HARBOR            65     280/  9/ 26   N/A
HARRISON CRIB              71     220/ 22/ 26   N/A
BURNHAM HARBOR             67     260/ 15       N/A
CALUMET HARBOR             70     210/  9/ 15 1004.8F
MICHIGAN CITY              69     180/ 17/ 21   N/A
MICHIGAN CITY 6N           69 66  210/ 16/ 19   N/A           2/ 3
ST. JOSEPH                 68 65  180/ 14/ 17   N/A           2/ 3
$$

ILZ025>027-034>036-040-047-049-050-058-095>099-210700-
WEST-CENTRAL ILLINOIS

CITY           SKY/WX    TMP DP  RH WIND       PRES   REMARKS
QUINCY         CLEAR     71  69  93 W9        29.88F FOG
GALESBURG*     PTCLDY    68  64  86 NW9       29.87R
MACOMB*        MOCLDY    70  67  90 NW14G24   29.89R
JACKSONVILLE*  CLEAR     72  70  93 SW7       29.88F FOG
PITTSFIELD*    CLEAR     73  69  88 W7        29.90S
$$

ILZ028>032-037-038-041>044-048-051>054-059>061-210700-
CENTRAL ILLINOIS

CITY           SKY/WX    TMP DP  RH WIND       PRES   REMARKS
PONTIAC        PTCLDY    70  70 100 W8        29.80S FOG
DECATUR        PTCLDY    72  68  87 SW12      29.85F
PEORIA         PTCLDY    72  66  81 W8        29.84R
6HR MIN TEMP:  71; 6HR MAX TEMP:  78;

LACON*         CLEAR     71  65  82 W12       29.81R
LINCOLN*       CLEAR     72  69  92 W5        29.81F
SPRINGFIELD    CLEAR     71  68  90 W8        29.86F
6HR MIN TEMP:  70; 6HR MAX TEMP:  76; 6HR PCP:  0.01;

TAYLORVILLE    PTCLDY    70  68  94 SW7       29.87F
$$

ILZ033-039-045-046-055>057-062-063-210700-
EAST-CENTRAL ILLINOIS

CITY           SKY/WX    TMP DP  RH WIND       PRES   REMARKS
CHAMPAIGN      CLEAR     69  68  96 SW8       29.84F FOG
DANVILLE*      RAIN      69  68  96 SW8       29.80F
RANTOUL*       CLEAR     71  67  89 SW8       29.83F FOG
MATTOON        HVY RAIN  72  67  84 W16       29.88R
PARIS*         CLOUDY    71  69  93 SW7       29.85F
$$

ILZ079-100>102-210700-
SOUTHWEST ILLINOIS

CITY           SKY/WX    TMP DP  RH WIND       PRES   REMARKS
ALTON          MOCLDY    73  67  82 SW5       29.90F
BELLEVILLE     PTCLDY    71  68  90 VRB3      29.90F
CAHOKIA*       PTCLDY    75  67  76 VRB3      29.90F
SPARTA*        CLEAR     72  68  87 SW7       29.94S
$$

ILZ064>066-069>071-074>076-080>082-084>086-088>090-092>094-210700-
SOUTH-CENTRAL ILLINOIS

CITY           SKY/WX    TMP DP  RH WIND       PRES   REMARKS
CARBONDALE     CLEAR     70  66  87 SW6       29.94F
6HR MIN TEMP:  69; 6HR MAX TEMP:  77;

CAIRO*         CLEAR     73  68  84 SW5       29.96F
EFFINGHAM*     MOCLDY    72  64  77 SW8       29.87F
MARION         CLEAR     75  68  78 SW6       29.95S
MT. VERNON     MOCLDY    72  64  78 SW6       29.93F
CENTRALIA*     MOCLDY    72  66  81 SW8       29.91F
SALEM*         CLOUDY    74  69  84 SW9       29.90F
METROPOLIS*    CLEAR     73  68  86 SW5       29.96F
$$

ILZ067-068-072-073-078-083-087-091-210700-
SOUTHEAST ILLINOIS

CITY           SKY/WX    TMP DP  RH WIND       PRES   REMARKS
LAWRENCEVILLE  MOCLDY    72  67  84 SW12      29.89F
FLORA*         MOCLDY    72  67  84 SW7       29.90F
FAIRFIELD*     MOCLDY   N/A N/A N/A SW6       29.91F
HARRISBURG*    CLEAR     70  69  95 S3        29.95S
ROBINSON*      CLOUDY    73  69  86 SW10      29.88F
CARMI*         PTCLDY    73  69  88 SW6       29.92S
$$

ABBREVIATIONS USED IN REMARKS
   TC - TEMPERATURE IN CELSIUS
  WCI - WIND CHILL INDEX
   HX - HEAT INDEX
  VSB - VISIBILITY
$$



USA.gov is the U.S. government's official web portal to all federal, state and local government web resources and services.